Regional Weather Roundup
Issued by NWS

Home | Current Version | Previous Version | Text Only | Print | Product List | Glossary On
Versions: 1 2 3 4 5 6 7 8 9 10 11 12 13 14 15 16 17 18 19 20 21 22 23 24 25 26 27 28 29 30 31 32 33 34 35 36 37 38 39 40 41 42 43 44 45 46 47 48 49 50
000
ASUS45 KBOI 290910
RWRID
WEATHER ROUNDUP FOR IDAHO
NATIONAL WEATHER SERVICE BOISE ID
300 AM MDT TUE JUL 29 2014

NOTE: "FAIR" INDICATES FEW OR NO CLOUDS BELOW 12000 FEET
WITH NO SIGNIFICANT WEATHER AND/OR OBSTRUCTIONS TO VISIBILITY

IDZ012-014-291000-
SOUTHWEST IDAHO


CITY           SKY/WX    TMP DP  RH WIND       PRES   REMARKS
BOISE          MOCLDY    80  49  33 E9        30.06R
CALDWELL       MOCLDY    73  50  43 CALM      30.06R
MOUNTAIN HOME  MOCLDY    75  49  39 SE7       30.08R
$$

IDZ016-017-291000-
SOUTHCENTRAL IDAHO


CITY           SKY/WX    TMP DP  RH WIND       PRES   REMARKS
BURLEY         CLOUDY    67  58  72 NE3       30.16S
JEROME         MOCLDY    67  56  67 NE12      30.16S
TWIN FALLS     MOCLDY    66  53  63 CALM      30.16R
$$

IDZ019>023-291000-
SOUTHEAST IDAHO


CITY           SKY/WX    TMP DP  RH WIND       PRES   REMARKS
IDAHO FALLS    CLOUDY    67  58  72 NE5       30.24F
POCATELLO      CLOUDY    63  62  97 N6        30.21F
REXBURG        CLOUDY    65  55  70 NE3       30.25F
$$

IDZ006-010-011-018-031-032-291000-
CENTRAL IDAHO MOUNTAINS


CITY           SKY/WX    TMP DP  RH WIND       PRES   REMARKS
MCCALL         MOCLDY    64  48  56 CALM      30.22S
HAILEY         MOCLDY    63  50  63 NW6       30.30F
STANLEY          N/A     46  44  93 CALM      30.38F
SALMON         CLEAR     57  46  67 CALM      30.21R
CHALLIS        PTCLDY    63  44  50 CALM      30.27S
$$

IDZ002-004-006-007-026-291000-
NORTHERN IDAHO


CITY           SKY/WX    TMP DP  RH WIND       PRES   REMARKS
LEWISTON       CLEAR     77  40  26 S3        29.99S
LOWELL           N/A     64  58  80 N3        30.06R
COEUR D`ALENE  CLEAR     64  54  68 S6        30.06S
MULLAN PASS    CLEAR     69  37  30 SE5       30.32F
$$


USA.gov is the U.S. government's official web portal to all federal, state and local government web resources and services.